timestamp,surface_pressure_avg,surface_temp_avg,battery_voltage,lat,long
2019-04-23 00:00:00+00:00,306.3879,1.28,12.89,47.84626,-54.09684
2019-04-23 00:10:00+00:00,317.093,1.2,12.81,47.84626,-54.09684
2019-04-23 00:20:00+00:00,332.0513,0.9,12.89,47.84626,-54.09684
2019-04-23 00:30:00+00:00,334.1797,1.0,12.89,47.84626,-54.09684
2019-04-23 00:40:00+00:00,335.6913,1.02,12.97,47.84626,-54.09684
2019-04-23 00:50:00+00:00,347.2896,1.01,12.97,47.84626,-54.09684
2019-04-23 01:00:00+00:00,354.9813,0.96,12.89,47.84626,-54.09684
2019-04-23 01:10:00+00:00,354.2112,1.0,12.81,47.84626,-54.09684
2019-04-23 01:20:00+00:00,354.4547,1.04,12.89,47.84626,-54.09684
2019-04-23 01:30:00+00:00,359.8813,1.0,12.89,47.84626,-54.09684
2019-04-23 01:40:00+00:00,365.0246,0.9,12.97,47.84626,-54.09684
2019-04-23 01:50:00+00:00,365.7097,1.04,12.97,47.84626,-54.09684
2019-04-23 02:00:00+00:00,365.338,1.0,12.89,47.84626,-54.09684
2019-04-23 02:10:00+00:00,365.7213,0.9,12.81,47.84626,-54.09684
2019-04-23 02:20:00+00:00,366.593,0.99,12.89,47.84626,-54.09684
2019-04-23 02:30:00+00:00,365.4812,1.1,12.89,47.84626,-54.09684
2019-04-23 02:40:00+00:00,364.488,1.0,12.89,47.84626,-54.09684
2019-04-23 02:50:00+00:00,358.6063,1.06,12.89,47.84626,-54.09684
2019-04-23 03:00:00+00:00,357.8446,1.1,12.81,47.84626,-54.09684
2019-04-23 03:10:00+00:00,359.3113,1.17,12.81,47.84626,-54.09684
2019-04-23 03:20:00+00:00,358.8163,1.16,12.89,47.84626,-54.09684
2019-04-23 03:30:00+00:00,353.488,1.17,12.89,47.84626,-54.09684
2019-04-23 03:40:00+00:00,349.0396,1.2,12.89,47.84626,-54.09684
2019-04-23 03:50:00+00:00,347.5679,1.25,12.89,47.84626,-54.09684
2019-04-23 04:00:00+00:00,341.718,1.3,12.81,47.84626,-54.09684
2019-04-23 04:10:00+00:00,335.6363,1.39,12.73,47.84626,-54.09684
2019-04-23 04:20:00+00:00,331.5196,1.38,12.81,47.84626,-54.09684
2019-04-23 04:30:00+00:00,320.9664,1.4,12.89,47.84626,-54.09684
2019-04-23 04:40:00+00:00,307.978,1.4,12.89,47.84626,-54.09684
2019-04-23 04:50:00+00:00,299.4197,1.4,12.89,47.84626,-54.09684
2019-04-23 05:00:00+00:00,293.8963,1.4,12.81,47.84626,-54.09684
2019-04-23 05:10:00+00:00,281.8646,1.4,12.73,47.84626,-54.09684
2019-04-23 05:20:00+00:00,270.3147,1.45,12.81,47.84626,-54.09684
2019-04-23 05:30:00+00:00,263.2364,1.46,12.81,47.84626,-54.09684
2019-04-23 05:40:00+00:00,253.0681,1.49,12.89,47.84626,-54.09684
2019-04-23 05:50:00+00:00,241.583,1.49,12.89,47.84626,-54.09684
2019-04-23 06:00:00+00:00,231.2014,1.5,12.81,47.84626,-54.09684
2019-04-23 06:10:00+00:00,223.2414,1.5,12.73,47.84626,-54.09684
2019-04-23 06:20:00+00:00,212.4781,1.5,12.81,47.84626,-54.09684
2019-04-23 06:30:00+00:00,206.4248,1.5,12.81,47.84626,-54.09684
2019-04-23 06:40:00+00:00,201.1715,1.5,12.81,47.84626,-54.09684
2019-04-23 06:50:00+00:00,193.4198,1.5,12.89,47.84626,-54.09684
2019-04-23 07:00:00+00:00,187.7348,1.5,12.81,47.84626,-54.09684
2019-04-23 07:10:00+00:00,182.8382,1.5,12.73,47.84626,-54.09684
2019-04-23 07:20:00+00:00,181.2432,1.5,12.81,47.84626,-54.09684
2019-04-23 07:30:00+00:00,180.9381,1.5,12.81,47.84626,-54.09684
2019-04-23 07:40:00+00:00,183.7265,1.5,12.81,47.84626,-54.09684
2019-04-23 07:50:00+00:00,188.1381,1.5,12.81,47.84626,-54.09684
2019-04-23 08:00:00+00:00,187.8181,1.5,12.73,47.84626,-54.09684
2019-04-23 08:10:00+00:00,185.4981,1.55,12.65,47.84626,-54.09684
2019-04-23 08:20:00+00:00,189.0349,1.6,12.81,47.84626,-54.09684
2019-04-23 08:30:00+00:00,193.9581,1.64,12.81,47.84626,-54.09684
2019-04-23 08:40:00+00:00,191.0581,1.5,12.81,47.84626,-54.09684
2019-04-23 08:50:00+00:00,190.0231,1.3,12.81,47.84626,-54.09684
2019-04-23 09:00:00+00:00,202.4214,1.25,12.73,47.84626,-54.09684
2019-04-23 09:10:00+00:00,210.7731,1.2,12.65,47.84626,-54.09684
2019-04-23 09:20:00+00:00,208.4214,1.19,12.81,47.84626,-54.09684
2019-04-23 09:30:00+00:00,210.0481,1.18,12.81,47.84626,-54.09684
2019-04-23 09:40:00+00:00,217.3148,1.15,12.89,47.84626,-54.09684
2019-04-23 09:50:00+00:00,222.3597,1.15,12.97,47.84626,-54.09684
2019-04-23 10:00:00+00:00,225.3282,1.18,12.97,47.84626,-54.09684
2019-04-23 10:10:00+00:00,227.7097,1.19,12.89,47.84626,-54.09684
2019-04-23 10:20:00+00:00,228.9298,1.19,13.05,47.84626,-54.09684
2019-04-23 10:30:00+00:00,230.6081,1.19,13.21,47.84626,-54.09684
2019-04-23 10:40:00+00:00,228.6165,1.2,13.37,47.84626,-54.09684
2019-04-23 10:50:00+00:00,227.8531,1.2,13.53,47.84626,-54.09684
2019-04-23 11:00:00+00:00,234.8564,1.2,13.6,47.84626,-54.09684
2019-04-23 11:10:00+00:00,239.1397,1.2,13.92,47.84626,-54.09684
2019-04-23 11:20:00+00:00,243.1364,1.19,14.0,47.84626,-54.09684
2019-04-23 11:30:00+00:00,248.8198,1.1,14.0,47.84626,-54.09684
2019-04-23 11:40:00+00:00,254.0297,1.1,14.16,47.84626,-54.09684
2019-04-23 11:50:00+00:00,256.9581,1.14,14.96,47.84626,-54.09684
2019-04-23 12:00:00+00:00,264.2114,1.13,14.64,47.84626,-54.09684
2019-04-23 12:10:00+00:00,268.5197,1.1,15.2,47.84626,-54.09684
2019-04-23 12:20:00+00:00,274.2164,1.1,15.83,47.84626,-54.09684
2019-04-23 12:30:00+00:00,283.0497,1.1,14.96,47.84626,-54.09684
2019-04-23 12:40:00+00:00,291.668,1.1,14.96,47.84626,-54.09684
2019-04-23 12:50:00+00:00,294.5347,1.1,14.8,47.84626,-54.09684
2019-04-23 13:00:00+00:00,302.7131,1.1,14.88,47.84626,-54.09684
2019-04-23 13:10:00+00:00,312.548,1.1,14.88,47.84626,-54.09684
2019-04-23 13:20:00+00:00,316.5897,1.1,14.88,47.84626,-54.09684
2019-04-23 13:30:00+00:00,318.1296,1.1,14.88,47.84626,-54.09684
2019-04-23 13:40:00+00:00,323.258,1.1,14.88,47.84626,-54.09684
2019-04-23 13:50:00+00:00,324.3896,1.1,14.8,47.84626,-54.09684
2019-04-23 14:00:00+00:00,319.1597,1.1,14.8,47.84626,-54.09684
2019-04-23 14:10:00+00:00,321.1979,1.1,14.8,47.84626,-54.09684
2019-04-23 14:20:00+00:00,327.4747,1.09,14.88,47.84626,-54.09684
2019-04-23 14:30:00+00:00,326.9014,1.09,14.8,47.84626,-54.09684
2019-04-23 14:40:00+00:00,323.3464,1.1,14.64,47.84626,-54.09684
2019-04-23 14:50:00+00:00,326.7596,1.1,14.72,47.84626,-54.09684
2019-04-23 15:00:00+00:00,325.8514,1.11,14.64,47.84626,-54.09684
2019-04-23 15:10:00+00:00,322.8646,1.27,14.64,47.84626,-54.09684
2019-04-23 15:20:00+00:00,320.0996,1.35,14.72,47.84626,-54.09684
2019-04-23 15:30:00+00:00,321.6947,1.61,14.64,47.84626,-54.09684
2019-04-23 15:40:00+00:00,321.6463,2.06,14.64,47.84626,-54.09684
2019-04-23 15:50:00+00:00,314.3563,2.22,14.64,47.84626,-54.09684
2019-04-23 16:00:00+00:00,311.6647,2.28,14.64,47.84626,-54.09684
2019-04-23 16:10:00+00:00,313.3347,2.0,14.64,47.84626,-54.09684
2019-04-23 16:20:00+00:00,310.1462,1.9,14.64,47.84626,-54.09684
2019-04-23 16:30:00+00:00,297.958,2.0,14.64,47.84626,-54.09684
2019-04-23 16:40:00+00:00,293.3364,1.8,14.56,47.84626,-54.09684
2019-04-23 16:50:00+00:00,293.2147,1.85,14.56,47.84626,-54.09684
2019-04-23 17:00:00+00:00,285.4763,1.91,14.56,47.84626,-54.09684
2019-04-23 17:10:00+00:00,273.4697,2.08,14.48,47.84626,-54.09684
2019-04-23 17:20:00+00:00,267.9348,2.1,14.48,47.84626,-54.09684
2019-04-23 17:30:00+00:00,261.6331,2.18,14.48,47.84626,-54.09684
2019-04-23 17:40:00+00:00,248.1248,2.2,14.4,47.84626,-54.09684
2019-04-23 17:50:00+00:00,238.0365,2.24,14.4,47.84626,-54.09684
2019-04-23 18:00:00+00:00,233.3264,2.28,14.32,47.84626,-54.09684
2019-04-23 18:10:00+00:00,223.3464,2.26,14.24,47.84626,-54.09684
2019-04-23 18:20:00+00:00,212.1348,2.3,14.32,47.84626,-54.09684
2019-04-23 18:30:00+00:00,205.7365,2.3,14.32,47.84626,-54.09684
2019-04-23 18:40:00+00:00,197.5831,2.33,14.32,47.84626,-54.09684
2019-04-23 18:50:00+00:00,185.9398,2.4,14.32,47.84626,-54.09684
2019-04-23 19:00:00+00:00,181.5481,2.28,14.24,47.84626,-54.09684
2019-04-23 19:10:00+00:00,180.9332,2.2,14.08,47.84626,-54.09684
2019-04-23 19:20:00+00:00,175.5781,2.2,14.24,47.84626,-54.09684
2019-04-23 19:30:00+00:00,173.4415,2.2,14.16,47.84626,-54.09684
2019-04-23 19:40:00+00:00,176.6532,2.18,14.24,47.84626,-54.09684
2019-04-23 19:50:00+00:00,175.8348,2.18,14.16,47.84626,-54.09684
2019-04-23 20:00:00+00:00,173.6448,2.1,14.0,47.84626,-54.09684
2019-04-23 20:10:00+00:00,177.2998,2.08,13.92,47.84626,-54.09684
2019-04-23 20:20:00+00:00,180.6148,1.98,13.92,47.84626,-54.09684
2019-04-23 20:30:00+00:00,178.8915,1.9,13.92,47.84626,-54.09684
2019-04-23 20:40:00+00:00,185.3465,1.8,13.92,47.84626,-54.09684
2019-04-23 20:50:00+00:00,193.8865,1.8,13.84,47.84626,-54.09684
2019-04-23 21:00:00+00:00,191.6614,1.85,13.76,47.84626,-54.09684
2019-04-23 21:10:00+00:00,192.0181,1.8,13.6,47.84626,-54.09684
2019-04-23 21:20:00+00:00,206.0681,1.7,13.6,47.84626,-54.09684
2019-04-23 21:30:00+00:00,212.2848,1.58,13.53,47.84626,-54.09684
2019-04-23 21:40:00+00:00,210.5647,1.53,13.53,47.84626,-54.09684
2019-04-23 21:50:00+00:00,216.4781,1.53,13.44,47.84626,-54.09684
2019-04-23 22:00:00+00:00,225.1548,1.55,13.37,47.84626,-54.09684
2019-04-23 22:10:00+00:00,227.0448,1.5,13.21,47.84626,-54.09684
2019-04-23 22:20:00+00:00,225.9981,1.57,13.21,47.84626,-54.09684
2019-04-23 22:30:00+00:00,232.7131,1.53,13.21,47.84626,-54.09684
2019-04-23 22:40:00+00:00,241.9297,1.5,13.13,47.84626,-54.09684
2019-04-23 22:50:00+00:00,244.1264,1.4,13.13,47.84626,-54.09684
2019-04-23 23:00:00+00:00,242.0581,1.3,13.05,47.84626,-54.09684
2019-04-23 23:10:00+00:00,251.1014,1.2,12.97,47.84626,-54.09684
2019-04-23 23:20:00+00:00,259.3664,1.27,12.97,47.84626,-54.09684
2019-04-23 23:30:00+00:00,256.2998,1.3,12.97,47.84626,-54.09684
2019-04-23 23:40:00+00:00,254.6665,1.3,13.05,47.84626,-54.09684
2019-04-23 23:50:00+00:00,265.8497,1.27,13.05,47.84626,-54.09684
